This is the latest recevied weather packets stored in our database for station/object KC2TER. If no packets are shown the sender has not sent any weather packets the latest 10 day(s).
| Time | Temp. | Humidity | Pressure | Rain* | Wind** | Luminosity | Snow |
|---|---|---|---|---|---|---|---|
| 1777536627 | 8.33° C | 99% | 1007.8 hPa | 0 mm | - | 0 W/m² | - |
| 1777536324 | 8.33° C | 99% | 1007.9 hPa | 0 mm | - | 0 W/m² | - |
| 1777536021 | 8.33° C | 99% | 1007.8 hPa | 0 mm | - | 0 W/m² | - |
| 1777535721 | 8.33° C | 99% | 1008 hPa | 0 mm | - | 0 W/m² | - |
| 1777535418 | 8.33° C | 99% | 1008.1 hPa | 0 mm | - | 0 W/m² | - |
| 1777535115 | 8.33° C | 99% | 1008.3 hPa | 1.27 mm | - | 0 W/m² | - |
| 1777534812 | 8.33° C | 99% | 1008.2 hPa | 1.27 mm | - | 0 W/m² | - |
| 1777534509 | 8.33° C | 99% | 1008.1 hPa | 1.78 mm | - | 0 W/m² | - |
| 1777534206 | 8.33° C | 99% | 1008.5 hPa | 3.05 mm | - | 0 W/m² | - |
| 1777533903 | 8.33° C | 99% | 1008.4 hPa | 1.27 mm | - | 0 W/m² | - |
| 1777533601 | 8.33° C | 99% | 1008.2 hPa | 1.78 mm | - | 0 W/m² | - |
| 1777533296 | 8.33° C | 99% | 1008.3 hPa | 4.83 mm | - | 0 W/m² | - |
| 1777532993 | 8.33° C | 99% | 1008.2 hPa | 6.1 mm | - | 0 W/m² | - |
| 1777532690 | 8.33° C | 99% | 1008.4 hPa | 1.78 mm | - | 0 W/m² | - |
| 1777532387 | 8.33° C | 99% | 1008.4 hPa | 0 mm | - | 0 W/m² | - |
| 1777532083 | 8.33° C | 99% | 1008.5 hPa | 0 mm | - | 0 W/m² | - |
| 1777531779 | 8.33° C | 99% | 1008.3 hPa | 0 mm | - | 0 W/m² | - |
| 1777531475 | 8.33° C | 99% | 1008.4 hPa | 0 mm | - | 0 W/m² | - |
| 1777531173 | 8.33° C | 99% | 1008.4 hPa | 6.1 mm | - | 0 W/m² | - |
| 1777530871 | 7.78° C | 99% | 1008.3 hPa | 10.67 mm | - | 0 W/m² | - |
| 1777530568 | 7.78° C | 99% | 1008.5 hPa | 4.32 mm | - | 0 W/m² | - |
| 1777530265 | 7.78° C | 99% | 1008.5 hPa | 4.32 mm | - | 0 W/m² | - |
| 1777529961 | 8.33° C | 99% | 1008.5 hPa | 6.1 mm | - | 0 W/m² | - |
| 1777529658 | 8.33° C | 99% | 1008.8 hPa | 3.05 mm | - | 0 W/m² | - |
| 1777529355 | 8.33° C | 99% | 1008.7 hPa | 3.05 mm | - | 0 W/m² | - |
* Rain latest hour (hover to see other rain measurements)
** Current wind speed in m/s (hover to see current wind gust speed)